www.pogodaiklimat.ru

Погода и климат >> Архив погоды >> Буркина-Фасо >> Boromo


ПОГОДА в Boromo

  • Прогноз погоды в Boromo
  • Монитор погоды в Boromo
  • Климат города

АРХИВ ПОГОДЫ в Boromo

Время (UTC), дата Ветер
(напр.,м/с)
 
Видим.   Явления Облачность Т
(С)
Тd
(С)
f
(%)
Тe
(С)
Тes
(С)
Комфортность P
(гПа)
Po
(гПа)
Тmin
(С)
Tmax
(С)
R
(мм)
R24
(мм)
S
(см)
00 16.01 штиль 0 10 км 9/0
[Ci sp]
+20.0 -1.3 24 +20 +20 1012.1 981.6
03 16.01 штиль 0 10 км 9/0
[Ci sp]
+17.8 -1.5 27 +18 +18 1010.5 980.1
06 16.01 штиль 0 10 км 9/0
[Ci sp]
+16.0 +0.3 34 +16 +16 1011.0 980.3 +15.5
09 16.01 В 2 6000 м пыль 9/0
[Ci sp]
+21.5 -2.6 20 +21 +26 комфорт 1013.1 982.2
12 16.01 СВ 2 8000 м пыль 9/0
[Ci sp]
+32.6 -1.7 11 +29 +42 жарко 1011.1 981.3
15 16.01 В 2 8000 м пыль 9/0
[Ci sp]
+35.6 -0.1 10 +32 +39 жарко 1008.9 978.6
18 16.01 штиль 0 8000 м пыль 9/0
[Ci sp]
+32.2 +8.9 24 +31 +31 жарко 1009.6 979.0 +36.1
00 17.01 штиль 0 8000 м пыль 9/0
[Ci sp]
+22.8 +4.3 30 +23 +23 комфорт 1012.0 981.7
03 17.01 В 1 8000 м пыль 9/0
[Ci sp]
+20.4 +4.5 35 +22 +22 комфорт 1010.8 980.6
06 17.01 штиль 0 8000 м пыль 9/0
[Ci sp]
+19.6 +3.5 34 +20 +20 1011.2 980.8 +19.2
09 17.01 ЮВ 1 2000 м пыль 9/0
[Ci sp]
+24.2 +1.7 23 +23 +30 комфорт 1012.8 982.2
12 17.01 В 3 2600 м пыль 9/0
[Ci sp]
+32.5 -1.5 11 +29 +40 жарко 1011.0 980.7
15 17.01 В 2 4000 м пыль 9/0
[Ci sp]
+35.4 +1.6 12 +32 +39 жарко 1008.5 978.4
18 17.01 штиль 0 4500 м пыль 9/0
[Ci sp]
+32.2 +2.8 16 +30 +30 жарко 1008.9 978.5 +36.0
00 18.01 штиль 0 4500 м пыль 9/0
[Ci sp]
+22.0 +2.2 27 +22 +22 комфорт 1011.9 981.6
03 18.01 штиль 0 4500 м пыль 9/0
[Ci sp]
+19.6 +4.1 36 +20 +20 1010.6 980.3
06 18.01 штиль 0 4500 м пыль 9/0
[Ci sp]
+18.0 +3.9 39 +18 +18 1011.1 980.5 +17.4
09 18.01 штиль 0 3200 м пыль 9/0
[Ci sp]
+22.4 -0.6 22 +22 +29 комфорт 1013.2 982.4
12 18.01 В 2 3500 м пыль 9/0
[Ci sp]
+32.4 -3.8 9 +29 +42 жарко 1011.7 981.3
15 18.01 штиль 0 4000 м пыль 9/0
[Ci sp]
+34.2 -1.8 10 +30 +40 жарко 1009.1 978.9
18 18.01 штиль 0 6000 м пыль 9/0
[Ci sp]
+32.0 +5.2 19 +30 +30 жарко 1009.7 979.2 +34.5
00 19.01 штиль 0 6000 м пыль 9/0
[Ci sp]
+20.8 +2.4 30 +21 +21 комфорт 1011.6 981.2
03 19.01 штиль 0 8000 м пыль 9/0
[Ci sp]
+18.6 +1.8 32 +19 +19 1010.5 980.2
06 19.01 штиль 0 8000 м пыль 9/0
[Ci sp]
+15.6 +2.5 41 +16 +16 1011.2 980.5 +15.1
09 19.01 СВ 1 6000 м пыль 9/0
[Ci sp]
+22.5 -2.0 19 +21 +28 комфорт 1013.4 982.6
12 19.01 СВ 3 10 км 9/0
[Ci sp]
+33.6 -8.2 6 +29 +40 жарко 1011.1 980.8
15 19.01 СВ 3 10 км 9/0
[Ci sp]
+35.4 -13.8 4 +31 +36 жарко 1008.9 978.6
18 19.01 В 1 10 км 9/0
[Ci sp]
+32.1 -6.0 8 +28 +28 жарко 1009.4 978.8 +35.6
00 20.01 штиль 0 10 км 9/0
[Ci sp]
+20.2 -3.4 20 +20 +20 1011.3 981.0
03 20.01 штиль 0 10 км 9/0
[Ci sp]
+17.4 -1.5 28 +17 +17 1010.1 979.8
06 20.01 штиль 0 10 км 9/0
[Ci sp]
+16.6 -2.3 27 +17 +17 1011.0 980.4 +15.9
09 20.01 штиль 0 10 км 9/0
[Ci sp]
+22.3 -3.9 17 +21 +28 комфорт 1012.7 982.0
12 20.01 штиль 0 10 км 9/0
[Ci sp]
+33.1 -6.1 8 +29 +47 жарко 1011.5 981.1
15 20.01 СВ 1 10 км 9/0
[Ci sp]
+35.0 -6.5 7 +31 +39 жарко 1008.7 978.3
18 20.01 СВ 1 10 км 9/0
[Ci sp]
+31.5 -4.6 9 +28 +28 жарко 1009.3 978.7 +35.2
00 21.01 штиль 0 10 км 9/0
[Ci sp]
+21.2 -0.4 24 +21 +21 комфорт 1011.0 980.7
03 21.01 штиль 0 10 км 9/0
[Ci sp]
+18.8 -0.6 27 +19 +19 1010.4 980.0
06 21.01 штиль 0 10 км 9/0
[Ci sp]
+17.4 -2.3 26 +17 +17 1011.3 980.7 +16.6
09 21.01 СВ 2 10 км 9/0
[Ci sp]
+22.4 -2.7 19 +21 +27 комфорт 1013.7 982.9
12 21.01 В 2 10 км 9/0
[Ci sp]
+32.6 -7.4 7 +28 +42 жарко 1012.0 981.6
15 21.01 СВ 2 10 км 9/0
[Ci sp]
+34.8 -3.6 8 +31 +38 жарко 1009.1 978.8
18 21.01 СВ 2 10 км 9/0
[Ci sp]
+32.0 -5.8 8 +28 +28 жарко 1009.7 979.1 +35.4
00 22.01 штиль 0 10 км 9/0
[Ci sp]
+21.4 -0.7 23 +21 +21 комфорт 1012.6 982.2
03 22.01 штиль 0 10 км 9/0
[Ci sp]
+18.6 -1.0 27 +19 +19 1010.9 980.5
06 22.01 штиль 0 10 км 9/0
[Ci sp]
+16.8 -3.1 25 +17 +17 1011.5 980.9 +15.5
09 22.01 В 2 10 км 9/0
[Ci sp]
+22.2 -5.6 15 +21 +26 комфорт 1013.6 982.9
12 22.01 В 3 8000 м пыль 9/0
[Ci sp]
+32.3 -7.2 7 +28 +39 жарко 1011.2 980.9
15 22.01 В 2 8000 м пыль 9/0
[Ci sp]
+34.2 -8.5 6 +30 +37 жарко 1008.6 978.3
18 22.01 СВ 2 8000 м пыль 9/0
[Ci sp]
+31.4 -3.8 10 +28 +28 жарко 1009.3 978.7 +35.3

 

Местоположение метеостанции Boromo (Буркина-Фасо): широта 11.75 долгота -2.93 высота над уровнем моря 271 м.

В архиве по умолчанию представлена погода в Boromo за последнюю неделю. Архивные данные за месяц целиком и за предыдущие месяцы, начиная с января 2011 года, Вы можете получить, выбрав интересующий диапазон дат из раскрывающегося списка и нажав кнопку "Ввод!".

Внимание! Время в таблицах - всемирное. Для получения местного времени необходимо прибавить поправку, которая в Boromo равна 0 ч.

Смотрите также архив погоды в соседних городах и на ближайших метеорологических станциях:

Погода в Dedougou (Буркина-Фасо) (100 км)
Погода в Gaoua (Буркина-Фасо) (160 км)
Погода в Bobo-Dioulasso (Буркина-Фасо) (165 км)
Погода в Ouagadougou (Буркина-Фасо) (167 км)
Погода в Wa (Гана) (195 км)
Погода в Po (Буркина-Фасо) (205 км)
Погода в Ouahigouya (Буркина-Фасо) (210 км)
Погода в Navrongo (Гана) (221 км)
Погода в San (Мали) (271 км)
Погода в Koutiala (Мали) (285 км)

Пояснения к столбцам:

Ветер - указаны скорость ветра в м/с - средняя за 10 мин, порывы в срок и между сроками (в фигурных скобках) и направление, откуда дует ветер: С - северный, СВ - северо-восточный, В - восточный, ЮВ - юго-восточный, Ю - южный, ЮЗ - юго-западный, З - западный, СЗ - северо-западный.
Видимость - горизонтальная дальность видимости в метрах или километрах. При видимости от 1 до 10 км при отсутствии осадков обычно наблюдается дымка, при ухудшении видимости до 1 км и менее - туман. В сухую погоду видимость может ухудшаться дымом, пылью или мглою.
Явления - указаны атмосферные явления, наблюдавшиеся в срок или в последний час перед сроком; фигурными скобками обозначены явления, наблюдавшиеся между сроками (за 1-3 часа до срока); квадратными скобками обозначены град или гололедные отложения с указанием их диаметра в мм.
Облачность - указаны через наклонную черту общая и нижняя облачность в баллах и высота нижней границы облаков в метрах; квадратными скобками обозначены формы облаков: Ci - перистые, Cs - перисто-слоистые, Cc - перисто-кучевые, Ac - высококучевые, As - высокослоистые, Sc - слоисто-кучевые, Ns - слоисто-дождевые, Cu - кучевые, Cb - кучево-дождевые. Подробнее классификацию облаков см. в Атласе облаков (PDF).
T - Температура воздуха - температура, измеренная на высоте 2 м над землей.
Td - Температура точки росы - температура, при понижении до которой содержащийся в воздухе водяной пар достигнет насыщения.
f - Относительная влажность воздуха - влажноcть воздуха, измеренная на высоте 2 м над землей.
Te - Эффективная температура - температура, которую ощущает одетый по сезону человек в тени. Характеристика душности погоды. При расчете учитывается влияние влажности воздуха и скорости ветра на теплоощущения человека.
Tes - Эффективная температура на солнце - температура, которую ощущает человек, с поправкой на солнечный нагрев. Характеристика знойности погоды. Зависит от высоты солнца над горизонтом, облачности и скорости ветра. Ночью, в пасмурную погоду, а также при ветре 12 м/с и более поправка равна нулю.
P - Атмосферное давление - приведенное к уровню моря атмосферное давление.
Po - Атмосферное давление - измеренное на уровне метеостанции атмосферное давление.
Tmin - Минимальная температура - минимум температуры воздуха на высоте 2 м над землей.
Tmax - Максимальная температура - максимум температуры воздуха на высоте 2 м над землей.
R - Количество осадков - Количество выпавших осадков за период времени, мм. При наведении курсора мыши на число - период времени, за который выпало указанное количество осадков.
R24 - Количество осадков - Количество выпавших осадков за 24 часа, мм.
S - Снежный покров - Высота снежного покрова, см. При наведении курсора мыши на число - состояние снежного покрова и степень покрытия местности в баллах.